Meteo Giornale » Osservazioni meteo Italia » Palermo-Punta Raisi

ore: 16:20 - Osservazioni Meteo Palermo-Punta Raisi
Lat. 38° 11' N Lon. 13° 6' E Alt. 21 metri s.l.m.

sereno Europe/Rome

19 °C

Sereno

Temp. 24 Ore

11 °C

19 °C

Est/Nord-Est

24 Km/h

Dew point 10 °C

Umidità 55 %

Visibilità  10 Km

Il sole sorge alle ore 06:24

Il sole tramonta alle ore 19:48

Data e Ora Cielo e Fenomeni T °C DP °C Um. % Pres. hPa Vis. km Vento km/h
Oggi h: 16:20 sereno Sereno 19 10 55 1023 10 E/NE 24
Oggi h: 15:50 sereno Sereno 18 11 63 1023 10 NE 24
Oggi h: 15:20 sereno Sereno 17 13 77 1024 10 NE 27.8
Oggi h: 14:50 sereno Sereno 18 14 77 1024 10 E/NE 25.9
Oggi h: 14:20 sereno Sereno 18 13 72 1024 10 E/NE 25.9
Oggi h: 13:50 sereno Sereno 18 12 67 1024 10 E/NE 27.8
Oggi h: 13:20 sereno Sereno 18 12 67 1024 10 E/NE 24
Oggi h: 12:50 sereno Sereno 17 12 72 1024 10 NE 16.7
Oggi h: 12:20 sereno Sereno 17 11 67 1025 10 N 7.4
Oggi h: 11:50 sereno Sereno 17 12 72 1025 10 N 9.3
Oggi h: 11:20 sereno Sereno 16 11 72 1025 10 N 5.5
Oggi h: 10:50 sereno Sereno 16 12 77 1025 10 N 5.5
Oggi h: 10:20 sereno Sereno 15 11 76 1024 10 O 9.3
Oggi h: 09:50 sereno Sereno 15 11 76 1024 10 O 9.3
Oggi h: 08:50 sereno Sereno 15 10 72 1023 10 N 3.7
Oggi h: 08:20 sereno Sereno 14 10 76 1023 10 N 3.7
Oggi h: 07:50 sereno Sereno 13 9 76 1023 10 S/SE 7.4
Oggi h: 07:20 sereno Sereno 12 10 87 1023 10 S/SE 7.4
Oggi h: 06:50 sereno Sereno 12 9 81 1022 10 S/SO 9.3
Oggi h: 06:20 sereno Sereno 11 8 81 1022 10 S 9.3
Oggi h: 05:50 sereno Sereno 12 9 81 1022 10 N 5.5
Oggi h: 05:20 sereno Sereno 12 9 81 1022 10 N 3.7
Oggi h: 04:50 sereno Sereno 13 10 81 1022 10 E/NE 7.4
Oggi h: 04:20 sereno Sereno 13 10 81 1022 10 NE 7.4
Oggi h: 03:50 sereno Sereno 12 10 87 1022 10 E/SE 7.4
Oggi h: 03:20 sereno Sereno 13 11 87 1022 10 N 5.5
Oggi h: 02:50 sereno Sereno 12 10 87 1022 10 N 3.7
Oggi h: 02:20 sereno Sereno 13 10 81 1022 10 N 5.5
Oggi h: 01:50 sereno Sereno 14 10 76 1022 10 N 1.8
Oggi h: 01:20 sereno Sereno 14 10 76 1022 10 N 5.5
Oggi h: 00:50 sereno Sereno 13 10 81 1022 10 S 7.4
Oggi h: 00:20 sereno Sereno 14 11 82 1022 10 N 5.5
Ieri h: 23:50 sereno Sereno 14 11 82 1022 10 N 5.5
Ieri h: 23:20 sereno Sereno 15 12 82 1022 10 O 7.4
Ieri h: 22:50 sereno Sereno 15 13 87 1021 10 N/NE 7.4
Ieri h: 22:20 poco_nuvoloso Poco Nuvoloso 14 11 82 1021 10 SE 7.4
Ieri h: 21:50 poco_nuvoloso Poco Nuvoloso 15 12 82 1021 10 N 5.5
Ieri h: 21:20 poco_nuvoloso Poco Nuvoloso 15 12 82 1021 10 N 3.7
Ieri h: 20:50 poco_nuvoloso Poco Nuvoloso 16 13 82 1020 10 N 3.7
Ieri h: 20:20 poco_nuvoloso Poco Nuvoloso 16 12 77 1020 10 N 5.5
Ieri h: 19:50 nuvoloso Nuvoloso 16 12 77 1020 10 SO 9.3
Ieri h: 19:20 nuvoloso Nuvoloso 16 12 77 1020 10 N 5.5
Ieri h: 18:50 nuvoloso Nuvoloso 17 12 72 1020 10 O 7.4
Ieri h: 18:20 nuvoloso Nuvoloso 17 12 72 1020 10 O/SO 9.3
Ieri h: 17:50 poco_nuvoloso Poco Nuvoloso 18 10 59 1019 10 E 14.8
Ieri h: 17:20 nuvoloso Nuvoloso 18 10 59 1019 10 E/NE 20.3
Ieri h: 16:50 nuvoloso Nuvoloso 18 11 63 1019 10 E/NE 22.2